Notices

What's New in latest Release from April 7th, 2021:

- Updated Glossary, including Speed of Maximum Gust, and Total Hourly Precipitation

- Updated national and regional climate services offices contacts and prices information

- Addition of station inventory lists for 1981-2010, 1971-2000, and 1961-1990 Normals.

If you haven't already, please take our survey and provide feedback about our website: https://eccc.sondage-survey.ca/f/LanguageSelection.aspx?s=442ca660-fcf1-47c0-95a9-59707d6fd709

Hourly Data Report for April 25, 2021

KENORA A
ONTARIO
Current Station Operator: NAVCAN

49°47'18.000" N
94°21'47.000" W
409.70 m
6034076
71850
YQK

Download Data

Hourly Data (April 2021)
Hourly Data Report for April 25, 2021
TIME
LST
Temp Definition
°C
Dew Point Definition
°C
Rel Hum Definition
%
Precip. Amount Definition
mm

Wind Dir Definition
10's deg

Wind Spd Definition
km/h
Visibility Definition
km
Stn Press Definition
kPa
Hmdx Definition


Wind Chill Definition


Weather Definition


00:00 -1.1 -8.1 59   20 10 32.2 96.77   -5 Clear
01:00 -1.9 -8.6 61   17 9 32.2 96.74   -5 LegendNANA
02:00 -1.7 -7.4 65   19 12 32.2 96.75   -6 LegendNANA
03:00 -1.1 -6.4 67   19 14 32.2 96.76   -6 Mainly Clear
04:00 -1.3 -6.2 69   20 13 32.2 96.78   -6 LegendNANA
05:00 -0.2 -6.5 63   19 13 32.2 96.78   -4 LegendNANA
06:00 -0.3 -6.9 61   18 10 32.2 96.80   -4 Mostly Cloudy
07:00 1.3 -7.1 54   20 12 32.2 96.81     LegendNANA
08:00 3.6 -8.4 41   21 23 32.2 96.79     LegendNANA
09:00 3.4 -8.2 42   20 24 24.1 96.78     Cloudy
10:00 4.4 -9.4 36   21 16 24.1 96.76     LegendNANA
11:00 6.4 -10.9 28   20 18 32.2 96.75     LegendNANA
12:00 5.9 -10.4 30   20 24 32.2 96.70     Cloudy
13:00 7.0 -10.2 28   20 20 32.2 96.67     LegendNANA
14:00 7.7 -10.3 27   22 26 24.1 96.61     LegendNANA
15:00 8.9 -10.8 24   21 22 32.2 96.53     Mostly Cloudy
16:00 8.6 -11.0 24   21 25 32.2 96.46     LegendNANA
17:00 8.0 -10.7 25   23 19 24.1 96.44     LegendNANA
18:00 7.5 -10.8 26   20 15 24.1 96.43     Mostly Cloudy
19:00 6.7 -9.3 31   20 9 24.1 96.41     LegendNANA
20:00 5.5 -8.4 36   20 7 32.2 96.45     LegendNANA
21:00 5.2 -7.3 40   18 9 32.2 96.47     Mostly Cloudy
22:00 3.8 -5.2 52   20 10 32.2 96.46     LegendNANA
23:00 3.7 -3.8 58   20 9 32.2 96.47     LegendNANA

Notes on Data Quality.

Legend

  • E = Estimated
  • M = Missing
  • NA = Not Available*
  • [empty] = Indicates an unobserved value
Date modified: